STARLINK-2499 (48377 NORAD) Tracking and Keplerian Element Data

This shows tracking and keplerian element data for the satellite.

Feedback or suggestion? Click here.




ElementValue
Catalog48377
NameSTARLINK-2499
Epoch Orbit1337
Epoch Day210.85500266
Epoch Year2021
RAAN350.6346
Inclination53.0564
Eccentricity0.0001238
Argument of Perigee91.7616
Mean Anonmoly268.3515
Mean Motion15.06392496
Decay Rate1.101E-05
L11 48377U 21038AA 21210.85500266 .00001101 00000-0 92780-4 0 9994
L22 48377 53.0564 350.6346 0001238 91.7616 268.3515 15.06392496 13374

Live tracking and technical data element details for STARLINK-2499 (NORAD 48377). STARLINK-2499 can be tracked NOW for your location showing map with azimuth and elevation plus other details from your city location.

Track the satellite on the map from your city or location and see movement details for azimuth, elevation, latitude, longitude, range, height, and movement on the map or in text.







IsCatalogInMostPopularTable: catalog: 48377, numindb: 30
Update: records affected: 1



GetName: 48377 STARLINK-2499

Hit Count: updated at: Sat, 31 Jul 2021 15:28:19 GMT